Weather History for KHYR - March, 2014

Change the Weather History Date:

Friday, March 21, 2014

  Actual Average Record
Temperature  
Mean Temperature 28 °F -  
Max Temperature 36 °F 51 °F 64 °F (2012)
Min Temperature 21 °F 26 °F 0 °F (2002)
Degree Days  
Heating Degree Days 37    
Moisture  
Dew Point 28 °F    
Average Humidity 86    
Maximum Humidity 96    
Minimum Humidity 61    
Precipitation  
Precipitation 0.15 in - - ()
Sea Level Pressure  
Sea Level Pressure 29.80 in    
Wind  
Wind Speed 5 mph (South)    
Max Wind Speed 14 mph    
Max Gust Speed 22 mph    
Visibility 4 miles    
Events Fog , Snow    
Averages and records for this station are not official NWS values.
T = Trace of Precipitation, MM = Missing Value Source: NWS Daily Summary

Daily Weather History Graph

Daily Weather History Graph

Search for Another Location

Airport or City:

Trip Planner

Search our weather history database for the weather conditions in past years. The results will help you decide how hot, cold, wet, or windy it might be!

Date:

Astronomy

Mar. 21, 2014 Rise Set
Actual Time 7:06 AM CDT 7:19 PM CDT
Civil Twilight 6:37 AM CDT 7:49 PM CDT
Nautical Twilight 6:01 AM CDT 8:24 PM CDT
Astronomical Twilight 5:25 AM CDT 9:01 PM CDT
Moon No Moon Rise 9:44 AM CDT (3/21)
Length of Visible Light 13h 12m
Length of Day
12h 12m
Waning Gibbous, 75% of the Moon is Illuminated
Mar 21
Waning Gibbous
Mar 23
Last Quarter
Mar 30
New
Apr 7
First Quarter
Apr 15
Full

Hourly Weather History & Observations

Time (CDT) Temp. Windchill Dew Point Humidity Pressure Visibility Wind Dir Wind Speed Gust Speed Precip Events Conditions
12:53 AM 24.1 °F - 21.9 °F 91% 29.97 in 9.0 mi Calm Calm - N/A   Clear
1:53 AM 23.0 °F - 19.9 °F 88% 29.95 in 8.0 mi Calm Calm - N/A   Clear
2:53 AM 24.1 °F - 21.0 °F 88% 29.94 in 9.0 mi Calm Calm - N/A   Partly Cloudy
3:53 AM 21.0 °F - 17.1 °F 85% 29.92 in 9.0 mi Calm Calm - N/A   Clear
4:53 AM 24.1 °F - 21.0 °F 88% 29.91 in 10.0 mi Calm Calm - N/A   Clear
5:53 AM 28.0 °F - 23.0 °F 81% 29.89 in 10.0 mi Calm Calm - N/A   Mostly Cloudy
6:53 AM 30.9 °F 24.3 °F 23.0 °F 72% 29.89 in 10.0 mi SSE 6.9 mph - N/A   Overcast
7:53 AM 32.0 °F 27.5 °F 21.9 °F 66% 29.88 in 10.0 mi South 4.6 mph - N/A   Overcast
8:53 AM 33.1 °F 26.9 °F 21.9 °F 64% 29.83 in 10.0 mi SSE 6.9 mph - N/A   Overcast
9:53 AM 34.0 °F 25.5 °F 21.9 °F 61% 29.79 in 10.0 mi SE 11.5 mph - N/A   Overcast
10:34 AM 34.0 °F 26.0 °F 23.0 °F 64% 29.80 in 2.5 mi SSW 10.4 mph 17.3 mph 0.00 in Snow Light Snow
10:37 AM 33.1 °F 25.5 °F 24.1 °F 70% 29.79 in 1.0 mi SSW 9.2 mph - 0.00 in Snow Light Snow
10:46 AM 33.1 °F - 26.1 °F 75% 29.79 in 2.0 mi Calm Calm - 0.00 in Snow Light Snow
10:53 AM 34.0 °F - 25.0 °F 70% 29.84 in 9.0 mi Calm Calm - 0.00 in   Overcast
11:33 AM 35.1 °F 26.4 °F 25.0 °F 67% 29.78 in 1.5 mi South 12.7 mph 21.9 mph 0.00 in Snow Light Snow
11:36 AM 34.0 °F 25.5 °F 27.0 °F 75% 29.78 in 1.0 mi South 11.5 mph 21.9 mph 0.00 in Snow Light Snow
11:50 AM 33.8 °F 27.0 °F 28.4 °F 81% 29.77 in 1.8 mi South 8.1 mph - 0.00 in Snow Light Snow
11:53 AM 33.1 °F 25.5 °F 28.0 °F 82% 29.82 in 1.5 mi South 9.2 mph - 0.00 in Snow Light Snow
12:02 PM 32.0 °F 24.8 °F 28.9 °F 88% 29.77 in 0.8 mi South 8.1 mph - 0.00 in Snow Light Snow
12:19 PM 32.0 °F 24.8 °F 30.0 °F 92% 29.75 in 0.2 mi SSE 8.1 mph - 0.02 in Fog , Snow Heavy Snow
12:53 PM 32.0 °F 23.6 °F 30.0 °F 92% 29.76 in 1.0 mi SE 10.4 mph - 0.04 in Snow Light Snow
1:02 PM 33.1 °F 23.4 °F 30.0 °F 89% 29.71 in 1.8 mi SE 13.8 mph - 0.00 in Snow Light Snow
1:20 PM 33.1 °F 25.5 °F 30.0 °F 89% 29.71 in 1.2 mi South 9.2 mph - 0.01 in Snow Light Snow
1:27 PM 33.1 °F 25.5 °F 30.0 °F 89% 29.71 in 1.0 mi SE 9.2 mph - 0.01 in Snow Light Snow
1:38 PM 33.1 °F 26.9 °F 30.0 °F 89% 29.72 in 1.2 mi SSW 6.9 mph - 0.01 in Snow Light Snow
1:44 PM 33.1 °F 26.9 °F 30.9 °F 92% 29.71 in 0.8 mi South 6.9 mph - 0.02 in Snow Light Snow
1:53 PM 33.1 °F 26.9 °F 30.9 °F 92% 29.77 in 0.8 mi South 6.9 mph - 0.02 in Snow Light Snow
1:58 PM 33.1 °F 25.5 °F 30.0 °F 89% 29.71 in 1.0 mi South 9.2 mph - 0.00 in Snow Light Snow
2:06 PM 33.1 °F 26.1 °F 30.0 °F 89% 29.71 in 2.0 mi South 8.1 mph - 0.00 in Snow Light Snow
2:10 PM 33.1 °F 25.5 °F 30.0 °F 89% 29.71 in 3.0 mi South 9.2 mph - 0.00 in Snow Light Snow
2:18 PM 33.1 °F 24.9 °F 30.0 °F 89% 29.71 in 7.0 mi South 10.4 mph - 0.00 in   Overcast
2:53 PM 33.1 °F 27.7 °F 30.9 °F 92% 29.75 in 4.0 mi SSE 5.8 mph - 0.00 in Snow Light Snow
3:00 PM 33.1 °F 27.7 °F 30.0 °F 89% 29.70 in 1.8 mi South 5.8 mph - 0.01 in Snow Light Snow
3:18 PM 33.1 °F 27.7 °F 30.9 °F 92% 29.70 in 1.0 mi South 5.8 mph - 0.02 in Snow Light Snow
3:30 PM 33.1 °F 30.0 °F 30.9 °F 92% 29.70 in 0.8 mi SSW 3.5 mph - 0.02 in Snow Light Snow
3:39 PM 33.1 °F 30.0 °F 30.9 °F 92% 29.70 in 0.8 mi SSW 3.5 mph - 0.03 in Snow Light Snow
3:53 PM 33.1 °F 30.0 °F 30.9 °F 92% 29.75 in 0.5 mi South 3.5 mph - 0.04 in Fog , Snow Snow
4:39 PM 33.1 °F - 30.9 °F 92% 29.71 in 1.2 mi Calm Calm - 0.02 in Snow Light Snow
4:53 PM 33.1 °F 30.0 °F 30.9 °F 92% 29.77 in 1.0 mi West 3.5 mph - 0.02 in Snow Light Snow
5:04 PM 33.1 °F - 32.0 °F 96% 29.72 in 0.5 mi Calm Calm - 0.01 in Fog , Snow Snow
5:39 PM 33.1 °F 30.0 °F 30.9 °F 92% 29.74 in 0.8 mi Variable 3.5 mph - 0.02 in Snow Light Snow
5:53 PM 33.1 °F 28.7 °F 32.0 °F 96% 29.80 in 1.0 mi Variable 4.6 mph - 0.03 in Snow Light Snow
6:02 PM 33.1 °F 30.0 °F 30.9 °F 92% 29.76 in 1.8 mi Variable 3.5 mph - 0.00 in Snow Light Snow
6:09 PM 33.1 °F 28.7 °F 30.9 °F 92% 29.76 in 2.5 mi WNW 4.6 mph - 0.00 in Snow Light Snow
6:21 PM 33.1 °F - 30.9 °F 92% 29.77 in 4.0 mi North - - 0.00 in Snow Light Snow
6:41 PM 33.1 °F - 30.9 °F 92% 29.78 in 2.5 mi North - - 0.00 in Snow Light Snow
6:50 PM 33.8 °F 28.6 °F 30.2 °F 87% 29.79 in 1.8 mi Variable 5.8 mph - 0.00 in Snow Light Snow
6:53 PM 33.1 °F 28.7 °F 30.9 °F 92% 29.84 in 1.8 mi Variable 4.6 mph - 0.00 in Snow Light Snow
7:02 PM 33.1 °F 26.1 °F 30.0 °F 89% 29.80 in 1.8 mi WNW 8.1 mph - 0.00 in Snow Light Snow
7:09 PM 33.1 °F 26.9 °F 30.0 °F 89% 29.81 in 2.5 mi Variable 6.9 mph - 0.00 in Snow Light Snow
7:17 PM 33.1 °F 27.7 °F 30.0 °F 89% 29.82 in 7.0 mi Variable 5.8 mph - 0.00 in Snow Light Snow
7:53 PM 30.9 °F 22.2 °F 28.0 °F 89% 29.90 in 10.0 mi NNW 10.4 mph - 0.00 in   Overcast
8:53 PM 30.0 °F 24.1 °F 27.0 °F 88% 29.94 in 10.0 mi Variable 5.8 mph - N/A   Overcast
9:53 PM 30.9 °F 27.5 °F 28.0 °F 89% 29.97 in 10.0 mi Variable 3.5 mph - N/A   Overcast
10:17 PM 30.9 °F 25.2 °F 28.0 °F 89% 29.93 in 10.0 mi Variable 5.8 mph - N/A   Overcast
10:53 PM 30.0 °F 21.7 °F 27.0 °F 88% 30.01 in 10.0 mi NW 9.2 mph - 0.00 in   Overcast
11:53 PM 28.0 °F 20.8 °F 24.1 °F 85% 30.04 in 10.0 mi Variable 6.9 mph 19.6 mph 0.00 in   Overcast